DW0218 Weather Reports


time (UTC)temp
F
wind
direction
speed
knots
gust
knots
rain 1hr
in
rain 24hr
in
rain mn
in
humidity
%
barometer
mb
20260507111805 65 260 3.5 6.1 0.00 0.00 0.00 48 1015.0
20260507103805 67 264 3.5 7.8 0.00 0.00 0.00 48 1016.0
20260507101805 64 286 1.7 6.1 0.00 0.00 0.00 50 1016.0
20260507100806 62 338 1.7 4.3 0.00 0.00 0.00 52 1016.0
20260507094805 66 225 1.7 6.1 0.00 0.00 0.00 50 1016.0
20260507093806 66 266 2.6 6.1 0.00 0.00 0.00 51 1016.0
20260507085805 61 235 3.5 7.0 0.00 0.00 0.00 64 1016.0
20260507083805 60 198 2.6 5.2 0.00 0.00 0.00 63 1016.0
20260507082805 60 224 0.0 2.6 0.00 0.00 0.00 58 1016.0
20260507080805 60 315 1.7 4.3 0.00 0.00 0.00 60 1016.0
20260507075805 60 226 1.7 4.3 0.00 0.00 0.00 71 1016.0
20260507073805 54 338 0.9 4.3 0.00 0.00 0.00 74 1016.0
20260507072806 53 41 1.7 4.3 0.00 0.00 0.00 79 1016.0
20260507071805 51 262 1.7 4.3 0.00 0.00 0.00 83 1016.0
20260507070805 49 229 1.7 2.6 0.00 0.00 0.00 88 1016.0
20260507065806 48 0 0.0 2.6 0.00 0.00 0.00 91 1016.0
20260507064805 47 0 0.0 0.0 0.00 0.00 0.00 92 1016.0
20260507062805 45 0 0.0 0.0 0.00 0.00 0.00 94 1016.0
20260507060805 44 0 0.0 0.0 0.00 0.00 0.00 96 1015.0
20260507055804 44 0 0.0 0.0 0.00 0.00 0.00 95 1015.0
20260507053805 43 0 0.0 0.0 0.00 0.00 0.00 95 1015.0
20260507051804 42 0 0.0 0.0 0.00 0.00 0.00 95 1015.0
20260507050805 42 0 0.0 0.0 0.00 0.00 0.00 95 1015.0
20260507043805 41 0 0.0 0.0 0.00 0.00 0.00 95 1015.0
20260507041805 41 0 0.0 0.0 0.00 0.00 0.00 94 1015.0
20260507040805 41 0 0.0 0.9 0.00 0.00 0.00 94 1015.0
20260507034805 41 0 0.0 0.0 0.00 0.00 0.00 94 1015.0
20260507033805 41 0 0.0 0.0 0.00 0.00 0.00 94 1015.0
20260507032805 41 0 0.0 0.9 0.00 0.00 0.00 93 1015.0
20260507030805 41 0 0.0 0.0 0.00 0.00 0.00 91 1015.0
20260507025805 42 0 0.0 0.0 0.00 0.00 0.00 90 1015.0
20260507024805 42 0 0.0 0.0 0.00 0.00 0.00 89 1015.0
20260507022805 42 0 0.0 0.0 0.00 0.00 0.00 87 1015.0
20260507020805 42 0 0.0 0.0 0.00 0.00 0.00 86 1015.0
20260507011805 44 0 0.0 0.0 0.00 0.00 0.00 84 1015.0
20260507005806 44 0 0.0 0.0 0.00 0.00 0.00 82 1015.0
20260507004805 44 0 0.0 0.9 0.00 0.00 0.00 82 1015.0
20260507002806 45 0 0.0 0.9 0.00 0.00 0.00 80 1015.0
20260507001805 46 0 0.0 0.0 0.00 0.00 0.00 78 1015.0
20260507000805 46 0 0.0 0.0 0.00 0.00 0.00 77 1015.0
20260506234805 46 0 0.0 0.0 0.00 0.00 0.00 75 1015.0
20260506232805 47 0 0.0 0.0 0.00 0.00 0.00 73 1015.0
20260506230820 48 0 0.0 0.0 0.00 0.00 0.00 71 1015.0
20260506222805 49 0 0.0 0.0 0.00 0.00 0.00 69 1014.0
20260506221804 49 0 0.0 0.0 0.00 0.00 0.00 68 1014.0
20260506220805 49 0 0.0 0.0 0.00 0.00 0.00 67 1014.0
20260506215805 50 0 0.0 0.0 0.00 0.00 0.00 67 1014.0
20260506214805 50 0 0.0 0.0 0.00 0.00 0.00 66 1014.0
20260506203806 53 0 0.0 0.0 0.00 0.00 0.00 62 1014.0
20260506194804 54 0 0.0 1.7 0.00 0.00 0.00 56 1014.0
20260506192806 54 338 0.0 1.7 0.00 0.00 0.00 55 1014.0
20260506190806 55 0 0.0 0.9 0.00 0.00 0.00 53 1013.0
20260506185806 55 0 0.0 0.9 0.00 0.00 0.00 53 1013.0
20260506184805 55 0 0.0 0.0 0.00 0.00 0.00 52 1013.0
20260506182805 55 0 0.9 2.6 0.00 0.00 0.00 51 1013.0
20260506181805 56 0 0.0 1.7 0.00 0.00 0.00 50 1012.9
20260506180806 56 338 0.9 1.7 0.00 0.00 0.00 49 1012.0
20260506165805 58 338 0.0 1.7 0.00 0.00 0.00 45 1012.0
20260506163805 58 0 0.0 2.6 0.00 0.00 0.00 45 1012.0
20260506161806 58 0 0.0 2.6 0.00 0.00 0.00 44 1012.0
20260506160805 59 45 0.0 4.3 0.00 0.00 0.00 44 1012.0
20260506155806 59 41 1.7 1.7 0.00 0.00 0.00 45 1012.0
20260506153806 59 22 0.9 2.6 0.00 0.00 0.00 44 1012.0
20260506144805 59 9 1.7 4.3 0.00 0.00 0.00 44 1012.0
20260506143805 60 26 0.0 2.6 0.00 0.00 0.00 44 1012.0
20260506140805 59 0 0.9 2.6 0.00 0.00 0.00 44 1012.0
20260506134805 60 99 0.0 2.6 0.00 0.00 0.00 44 1012.0
20260506131805 61 32 0.9 2.6 0.00 0.00 0.00 44 1012.0
20260506130806 60 1 0.9 2.6 0.00 0.00 0.00 44 1012.0
20260506125805 60 355 0.9 2.6 0.00 0.00 0.00 44 1013.0
20260506124805 60 357 0.9 5.2 0.00 0.00 0.00 43 1013.0
20260506122805 60 1 0.9 4.3 0.00 0.00 0.00 44 1012.0
20260506121805 60 342 1.7 5.2 0.00 0.00 0.00 44 1012.0
20260506115806 60 0 0.9 4.3 0.00 0.00 0.00 44 1013.0
20260506114805 60 14 0.9 4.3 0.00 0.00 0.00 44 1013.0